Location: Écuvilly
(49.6505°N, 2.9206°E)
Time: 06:20:18
(UTC+00:00)

USA 281 - Pass Details

Date: 17 November 2025
Orbit: 1079 x 1080 km, 106.0° (Epoch: 08 December)

Event Time Altitude Azimuth Distance (km) Brightness Sun altitude
Exits shadow 17:15:09 15° 79° (E) 2,592 4.6 -11.6°
Maximum altitude 17:18:48 23° 39° (NE) 2,112 4.3 -12.2°
Drops below altitude 10° 17:23:44 10° 350° (N) 2,931 5.5 -13.0°
Sets 17:26:46 0° 337° (NNW) 3,890 6.3 -13.4°
